Location: Unspecified
(48.5539°N, 71.6350°W)
Time: 23:23:33
(UTC-05:00)

ISS - Pass Details

Date: 26 January 2019
Orbit: 403 x 411 km, 51.6° (Epoch: 23 February)

Event Time Altitude Azimuth Distance (km) Brightness Sun altitude
Rises 17:45:57 0° 233° (SW) 2,325 1.4 -11.7°
Reaches altitude 10° 17:48:03 10° 228° (SW) 1,469 0.1 -12.0°
Maximum altitude 17:51:16 53° 151° (SSE) 513 -3.5 -12.6°
Enters shadow 17:53:02 23° 83° (E) 915 -2.7 -12.8°
Drops below altitude 10° 17:54:31 10° 74° (ENE) 1,481 - -13.1°
Sets 17:56:38 0° 69° (ENE) 2,347 - -13.4°
